Stündliche Wetter Barletta

Heute, 22 Oktober, Donnerstag

Zeit Temperatur Niederschläge Wind Luftdruck Luftfeuchtigkeit
00:00 +16°C° 0 mm 2 m/S 766 mmHg 51%
01:00 +16°C° 0 mm 1 m/S 766 mmHg 52%
02:00 +16°C° 0 mm 1 m/S 766 mmHg 54%
03:00 +15°C° 0 mm 2 m/S 766 mmHg 56%
04:00 +15°C° 0 mm 2 m/S 766 mmHg 57%
05:00 +15°C° 0 mm 2 m/S 766 mmHg 57%
06:00 +15°C° 0 mm 2 m/S 766 mmHg 56%
07:00 +15°C° 0 mm 2 m/S 766 mmHg 56%
08:00 +17°C° 0 mm 2 m/S 766 mmHg 50%
09:00 +19°C° 0 mm 2 m/S 767 mmHg 45%
10:00 +21°C° 0 mm 2 m/S 767 mmHg 39%
11:00 +23°C° 0 mm 1 m/S 767 mmHg 37%
12:00 +24°C° 0 mm 1 m/S 766 mmHg 35%
13:00 +25°C° 0 mm 1 m/S 766 mmHg 33%
14:00 +24°C° 0 mm 2 m/S 766 mmHg 35%
15:00 +24°C° 0 mm 2 m/S 766 mmHg 38%
16:00 +22°C° 0 mm 3 m/S 765 mmHg 41%
17:00 +21°C° 0 mm 2 m/S 765 mmHg 45%
18:00 +20°C° 0 mm 2 m/S 766 mmHg 49%
19:00 +19°C° 0 mm 1 m/S 766 mmHg 53%
20:00 +19°C° 0 mm 1 m/S 766 mmHg 54%
21:00 +18°C° 0 mm 1 m/S 766 mmHg 54%
22:00 +16°C° 0 mm 0 m/S 766 mmHg 55%
23:00 +16°C° 0 mm 0 m/S 766 mmHg 55%

Morgen, 23 Oktober, Freitag

Zeit Temperatur Niederschläge Wind Luftdruck Luftfeuchtigkeit
00:00 +15°C° 0 mm 0 m/S 766 mmHg 56%
01:00 +15°C° 0 mm 0 m/S 766 mmHg 57%
02:00 +16°C° 0 mm 1 m/S 766 mmHg 58%
03:00 +15°C° 0 mm 1 m/S 765 mmHg 59%
04:00 +15°C° 0 mm 1 m/S 765 mmHg 60%
05:00 +15°C° 0 mm 1 m/S 765 mmHg 59%
06:00 +15°C° 0 mm 1 m/S 765 mmHg 59%
07:00 +15°C° 0 mm 1 m/S 765 mmHg 58%
08:00 +18°C° 0 mm 1 m/S 765 mmHg 52%
09:00 +20°C° 0 mm 1 m/S 765 mmHg 45%
10:00 +22°C° 0 mm 1 m/S 765 mmHg 39%
11:00 +23°C° 0 mm 1 m/S 765 mmHg 36%
12:00 +24°C° 0 mm 1 m/S 764 mmHg 34%
13:00 +25°C° 0 mm 2 m/S 764 mmHg 32%
14:00 +25°C° 0 mm 2 m/S 764 mmHg 36%
15:00 +24°C° 0 mm 3 m/S 763 mmHg 40%
16:00 +22°C° 0 mm 3 m/S 763 mmHg 44%
17:00 +21°C° 0 mm 3 m/S 763 mmHg 48%
18:00 +20°C° 0 mm 3 m/S 763 mmHg 52%
19:00 +19°C° 0 mm 3 m/S 763 mmHg 55%
20:00 +19°C° 0 mm 3 m/S 763 mmHg 57%
21:00 +19°C° 0 mm 2 m/S 763 mmHg 58%
22:00 +18°C° 0 mm 2 m/S 763 mmHg 59%
23:00 +18°C° 0 mm 2 m/S 763 mmHg 59%

übermorgen, 24 Oktober, Samstag

Zeit Temperatur Niederschläge Wind Luftdruck Luftfeuchtigkeit
00:00 +18°C° 0 mm 2 m/S 763 mmHg 59%
01:00 +18°C° 0 mm 2 m/S 762 mmHg 59%
02:00 +18°C° 0 mm 2 m/S 762 mmHg 60%
03:00 +18°C° 0 mm 2 m/S 762 mmHg 61%
04:00 +17°C° 0 mm 2 m/S 762 mmHg 61%
05:00 +17°C° 0 mm 2 m/S 762 mmHg 63%
06:00 +17°C° 0 mm 3 m/S 762 mmHg 65%
07:00 +17°C° 0 mm 3 m/S 762 mmHg 67%
08:00 +19°C° 0 mm 3 m/S 761 mmHg 63%
09:00 +20°C° 0 mm 3 m/S 761 mmHg 59%
10:00 +23°C° 0 mm 2 m/S 761 mmHg 55%
11:00 +24°C° 0 mm 2 m/S 761 mmHg 52%
12:00 +25°C° 0 mm 2 m/S 761 mmHg 49%
13:00 +26°C° 0 mm 2 m/S 760 mmHg 46%
14:00 +26°C° 0 mm 2 m/S 760 mmHg 48%
15:00 +25°C° 0 mm 2 m/S 760 mmHg 50%
16:00 +25°C° 0 mm 3 m/S 760 mmHg 52%
17:00 +22°C° 0.1 mm 3 m/S 760 mmHg 59%
18:00 +21°C° 0.1 mm 3 m/S 760 mmHg 67%
19:00 +19°C° 0.1 mm 3 m/S 761 mmHg 74%
20:00 +18°C° 0 mm 3 m/S 761 mmHg 77%
21:00 +18°C° 0 mm 3 m/S 761 mmHg 80%
22:00 +17°C° 0 mm 3 m/S 761 mmHg 82%
23:00 +17°C° 0 mm 3 m/S 761 mmHg 84%

, 25 Oktober, Sonntag

Zeit Temperatur Niederschläge Wind Luftdruck Luftfeuchtigkeit
00:00 +17°C° 0 mm 3 m/S 761 mmHg 85%
01:00 +16°C° 0 mm 3 m/S 761 mmHg 87%
02:00 +16°C° 0 mm 3 m/S 760 mmHg 86%
03:00 +16°C° 0 mm 3 m/S 760 mmHg 85%
04:00 +16°C° 0 mm 3 m/S 760 mmHg 84%
05:00 +16°C° 0 mm 3 m/S 760 mmHg 83%
06:00 +16°C° 0 mm 3 m/S 760 mmHg 81%
07:00 +16°C° 0 mm 3 m/S 760 mmHg 80%
08:00 +17°C° 0 mm 3 m/S 760 mmHg 72%
09:00 +19°C° 0 mm 2 m/S 760 mmHg 64%
10:00 +21°C° 0 mm 2 m/S 760 mmHg 56%
11:00 +21°C° 0 mm 2 m/S 759 mmHg 53%
12:00 +23°C° 0 mm 2 m/S 759 mmHg 49%
13:00 +24°C° 0 mm 2 m/S 759 mmHg 46%
14:00 +23°C° 0 mm 2 m/S 759 mmHg 49%
15:00 +22°C° 0 mm 3 m/S 758 mmHg 53%
16:00 +21°C° 0 mm 4 m/S 758 mmHg 56%
17:00 +20°C° 0.1 mm 3 m/S 758 mmHg 62%
18:00 +19°C° 0.1 mm 3 m/S 758 mmHg 67%
19:00 +18°C° 0.1 mm 3 m/S 758 mmHg 73%
20:00 +18°C° 0.4 mm 3 m/S 758 mmHg 72%
21:00 +18°C° 0.4 mm 2 m/S 759 mmHg 70%
22:00 +18°C° 0.4 mm 2 m/S 759 mmHg 69%
23:00 +18°C° 0 mm 2 m/S 758 mmHg 72%

25 Oktober, Sonntag

Zeit Temperatur Niederschläge Wind Luftdruck Luftfeuchtigkeit
00:00 +17°C° 0 mm 3 m/S 761 mmHg 85%
01:00 +16°C° 0 mm 3 m/S 761 mmHg 87%
02:00 +16°C° 0 mm 3 m/S 760 mmHg 86%
03:00 +16°C° 0 mm 3 m/S 760 mmHg 85%
04:00 +16°C° 0 mm 3 m/S 760 mmHg 84%
05:00 +16°C° 0 mm 3 m/S 760 mmHg 83%
06:00 +16°C° 0 mm 3 m/S 760 mmHg 81%
07:00 +16°C° 0 mm 3 m/S 760 mmHg 80%
08:00 +17°C° 0 mm 3 m/S 760 mmHg 72%
09:00 +19°C° 0 mm 2 m/S 760 mmHg 64%
10:00 +21°C° 0 mm 2 m/S 760 mmHg 56%
11:00 +21°C° 0 mm 2 m/S 759 mmHg 53%
12:00 +23°C° 0 mm 2 m/S 759 mmHg 49%
13:00 +24°C° 0 mm 2 m/S 759 mmHg 46%
14:00 +23°C° 0 mm 2 m/S 759 mmHg 49%
15:00 +22°C° 0 mm 3 m/S 758 mmHg 53%
16:00 +21°C° 0 mm 4 m/S 758 mmHg 56%
17:00 +20°C° 0.1 mm 3 m/S 758 mmHg 62%
18:00 +19°C° 0.1 mm 3 m/S 758 mmHg 67%
19:00 +18°C° 0.1 mm 3 m/S 758 mmHg 73%
20:00 +18°C° 0.4 mm 3 m/S 758 mmHg 72%
21:00 +18°C° 0.4 mm 2 m/S 759 mmHg 70%
22:00 +18°C° 0.4 mm 2 m/S 759 mmHg 69%
23:00 +18°C° 0 mm 2 m/S 758 mmHg 72%

26 Oktober, Montag

Zeit Temperatur Niederschläge Wind Luftdruck Luftfeuchtigkeit
00:00 +17°C° 0 mm 2 m/S 758 mmHg 75%
01:00 +17°C° 0 mm 2 m/S 758 mmHg 79%
02:00 +16°C° 0 mm 3 m/S 758 mmHg 79%
03:00 +16°C° 0 mm 3 m/S 757 mmHg 79%
04:00 +16°C° 0 mm 3 m/S 757 mmHg 79%
05:00 +16°C° 0 mm 3 m/S 757 mmHg 77%
06:00 +16°C° 0 mm 3 m/S 757 mmHg 76%
07:00 +14°C° 0 mm 3 m/S 757 mmHg 74%
08:00 +17°C° 0 mm 2 m/S 757 mmHg 65%
09:00 +19°C° 0 mm 2 m/S 757 mmHg 56%
10:00 +21°C° 0 mm 2 m/S 757 mmHg 46%
11:00 +22°C° 0 mm 3 m/S 757 mmHg 43%
12:00 +24°C° 0 mm 3 m/S 757 mmHg 40%
13:00 +25°C° 0 mm 3 m/S 756 mmHg 36%
14:00 +25°C° 0 mm 4 m/S 756 mmHg 40%
15:00 +23°C° 0 mm 4 m/S 756 mmHg 44%
16:00 +23°C° 0 mm 4 m/S 755 mmHg 47%
17:00 +21°C° 0 mm 4 m/S 755 mmHg 55%
18:00 +20°C° 0 mm 4 m/S 755 mmHg 62%
19:00 +19°C° 0 mm 4 m/S 755 mmHg 69%
20:00 +19°C° 0 mm 4 m/S 755 mmHg 71%
21:00 +18°C° 0 mm 4 m/S 755 mmHg 73%
22:00 +18°C° 0 mm 4 m/S 755 mmHg 75%
23:00 +17°C° 0 mm 4 m/S 755 mmHg 73%

27 Oktober, Dienstag

Zeit Temperatur Niederschläge Wind Luftdruck Luftfeuchtigkeit
00:00 +17°C° 0 mm 4 m/S 754 mmHg 71%
01:00 +17°C° 0 mm 4 m/S 754 mmHg 69%
02:00 +17°C° 0 mm 4 m/S 754 mmHg 66%
03:00 +17°C° 0 mm 4 m/S 753 mmHg 64%
04:00 +16°C° 0 mm 5 m/S 753 mmHg 61%
05:00 +16°C° 0 mm 5 m/S 753 mmHg 62%
06:00 +16°C° 0 mm 5 m/S 753 mmHg 63%
07:00 +16°C° 0 mm 6 m/S 753 mmHg 63%
08:00 +16°C° 0 mm 5 m/S 754 mmHg 64%
09:00 +16°C° 0 mm 5 m/S 754 mmHg 65%
10:00 +16°C° 0 mm 5 m/S 754 mmHg 65%
11:00 +16°C° 0 mm 5 m/S 754 mmHg 61%
12:00 +17°C° 0 mm 5 m/S 754 mmHg 56%
13:00 +18°C° 0 mm 4 m/S 754 mmHg 51%
14:00 +19°C° 0 mm 3 m/S 754 mmHg 50%
15:00 +19°C° 0 mm 2 m/S 754 mmHg 49%
16:00 +20°C° 0 mm 1 m/S 754 mmHg 47%
17:00 +19°C° 0 mm 1 m/S 754 mmHg 51%
18:00 +18°C° 0 mm 1 m/S 754 mmHg 56%
19:00 +16°C° 0 mm 1 m/S 755 mmHg 60%
20:00 +16°C° 0 mm 2 m/S 754 mmHg 62%
21:00 +15°C° 0 mm 2 m/S 754 mmHg 65%
22:00 +14°C° 0 mm 3 m/S 754 mmHg 67%
23:00 +14°C° 0 mm 3 m/S 754 mmHg 71%
Mehr zeigen